Location: Hohe Wand Kleine Kanzel
(47.8330°N, 16.0170°E)
Time: 14:32:38
(UTC+02:00)

Vanguard 3 - Pass Details

Date: 02 August 2021
Orbit: 509 x 3260 km, 33.4° (Epoch: 27 September)

Event Time Altitude Azimuth Distance (km) Brightness Sun altitude
Rises 23:13:24 0° 273° (W) 6,762 12.3 -20.3°
Reaches altitude 10° 23:18:09 10° 266° (W) 5,966 11.8 -20.6°
Maximum altitude 23:34:41 37° 208° (SSW) 4,310 10.4 -21.8°
Enters shadow 23:42:38 27° 171° (S) 4,608 10.3 -22.3°
